Time,TemperatureF,DewpointF,PressureIn,WindDirection,WindDirectionDegrees,WindSpeedMPH,WindSpeedGustMPH,Humidity,HourlyPrecipIn,Conditions,Clouds,dailyrainin,SoftwareType,DateUTC
2013-03-05 13:36:00,62.9,40.0,29.90,SSW,193,2.0,2.0,43,0.00,,,0.00,Wunderground v.1.15,2013-03-05 21:36:00,
2013-03-05 13:42:00,63.3,41.0,29.90,South,184,2.0,2.0,44,0.00,,,0.00,Wunderground v.1.15,2013-03-05 21:42:00,
2013-03-05 13:48:00,63.4,41.7,29.90,SE,135,1.0,2.0,45,0.00,,,0.00,Wunderground v.1.15,2013-03-05 21:48:00,
2013-03-05 13:54:00,63.7,41.9,29.90,SSE,155,1.0,4.0,45,0.00,,,0.00,Wunderground v.1.15,2013-03-05 21:54:00,
2013-03-05 14:00:00,63.8,42.0,29.89,South,171,2.0,4.0,45,0.00,,,0.00,Wunderground v.1.15,2013-03-05 22:00:00,
2013-03-05 14:06:00,63.9,41.5,29.89,WSW,254,2.0,4.0,44,0.00,,,0.00,Wunderground v.1.15,2013-03-05 22:06:00,
2013-03-05 14:12:00,64.3,41.9,29.89,SSE,159,1.0,3.0,44,0.00,,,0.00,Wunderground v.1.15,2013-03-05 22:12:00,
2013-03-05 14:18:00,64.0,41.6,29.89,South,174,2.0,3.0,44,0.00,,,0.00,Wunderground v.1.15,2013-03-05 22:18:00,
2013-03-05 14:24:00,63.7,40.8,29.88,SSE,155,2.0,2.0,43,0.00,,,0.00,Wunderground v.1.15,2013-03-05 22:24:00,
2013-03-05 14:30:00,63.8,41.5,29.88,South,178,1.0,1.0,44,0.00,,,0.00,Wunderground v.1.15,2013-03-05 22:30:00,
2013-03-05 14:36:00,64.4,42.0,29.88,SE,142,1.0,8.0,44,0.00,,,0.00,Wunderground v.1.15,2013-03-05 22:36:00,
2013-03-05 14:42:00,64.2,41.2,29.88,South,188,2.0,2.0,43,0.00,,,0.00,Wunderground v.1.15,2013-03-05 22:42:00,
2013-03-05 14:48:00,63.9,41.5,29.88,NNW,340,2.0,2.0,44,0.00,,,0.00,Wunderground v.1.15,2013-03-05 22:48:00,
2013-03-05 14:54:00,63.8,42.6,29.88,SSE,161,1.0,4.0,46,0.00,,,0.00,Wunderground v.1.15,2013-03-05 22:54:00,
2013-03-05 15:00:00,63.7,42.5,29.88,South,178,2.0,2.0,46,0.00,,,0.00,Wunderground v.1.15,2013-03-05 23:00:00,
2013-03-05 15:06:00,63.2,42.6,29.88,SE,134,1.0,2.0,47,0.00,,,0.00,Wunderground v.1.15,2013-03-05 23:06:00,
2013-03-05 15:12:00,62.6,42.6,29.88,NNW,331,1.0,1.0,48,0.00,,,0.00,Wunderground v.1.15,2013-03-05 23:12:00,
2013-03-05 15:52:00,60.8,43.1,29.87,NE,53,0.0,7.0,52,0.00,,,0.00,Wunderground v.1.15,2013-03-05 23:52:00,
2013-03-05 15:58:00,60.7,43.0,29.88,SSW,213,1.0,7.0,52,0.00,,,0.00,Wunderground v.1.15,2013-03-05 23:58:00,
2013-03-05 16:04:00,60.5,43.3,29.88,NW,306,1.0,7.0,53,0.00,,,0.00,Wunderground v.1.15,2013-03-06 00:04:00,
2013-03-05 16:10:00,60.2,43.0,29.88,SE,146,1.0,1.0,53,0.00,,,0.00,Wunderground v.1.15,2013-03-06 00:10:00,
2013-03-05 16:16:00,60.2,43.5,29.87,NNE,17,0.0,7.0,54,0.00,,,0.00,Wunderground v.1.15,2013-03-06 00:16:00,
2013-03-05 16:22:00,59.8,43.1,29.87,East,93,0.0,7.0,54,0.00,,,0.00,Wunderground v.1.15,2013-03-06 00:22:00,
2013-03-05 16:28:00,59.6,42.9,29.87,SE,145,0.0,7.0,54,0.00,,,0.00,Wunderground v.1.15,2013-03-06 00:28:00,
2013-03-05 16:34:00,59.4,42.7,29.87,SE,146,0.0,7.0,54,0.00,,,0.00,Wunderground v.1.15,2013-03-06 00:34:00,
2013-03-05 16:40:00,59.3,43.1,29.86,SSE,153,0.0,0.0,55,0.00,,,0.00,Wunderground v.1.15,2013-03-06 00:40:00,
2013-03-05 16:46:00,59.2,43.0,29.86,South,176,0.0,0.0,55,0.00,,,0.00,Wunderground v.1.15,2013-03-06 00:46:00,
2013-03-05 16:52:00,59.3,43.6,29.86,SSW,195,0.0,0.0,56,0.00,,,0.00,Wunderground v.1.15,2013-03-06 00:52:00,
2013-03-05 16:58:00,59.3,43.6,29.85,South,180,0.0,1.0,56,0.00,,,0.00,Wunderground v.1.15,2013-03-06 00:58:00,
2013-03-05 17:04:00,59.1,42.9,29.85,South,188,0.0,0.0,55,0.00,,,0.00,Wunderground v.1.15,2013-03-06 01:04:00,
2013-03-05 17:10:00,58.8,43.6,29.85,SSW,193,0.0,1.0,57,0.00,,,0.00,Wunderground v.1.15,2013-03-06 01:10:00,
2013-03-05 17:16:00,58.5,42.8,29.85,SSW,211,0.0,1.0,56,0.00,,,0.00,Wunderground v.1.15,2013-03-06 01:16:00,
2013-03-05 17:22:00,58.2,42.6,29.85,SSW,192,1.0,2.0,56,0.00,,,0.00,Wunderground v.1.15,2013-03-06 01:22:00,
2013-03-05 17:28:00,57.8,42.7,29.84,SW,223,1.0,2.0,57,0.00,,,0.00,Wunderground v.1.15,2013-03-06 01:28:00,
2013-03-05 17:34:00,57.5,42.8,29.84,South,188,0.0,5.0,58,0.00,,,0.00,Wunderground v.1.15,2013-03-06 01:34:00,
2013-03-05 17:40:00,57.2,42.5,29.83,SSW,200,0.0,0.0,58,0.00,,,0.00,Wunderground v.1.15,2013-03-06 01:40:00,
2013-03-05 17:46:00,56.9,42.3,29.84,SW,221,0.0,0.0,58,0.00,,,0.00,Wunderground v.1.15,2013-03-06 01:46:00,
2013-03-05 17:52:00,56.6,42.4,29.83,SSE,160,0.0,0.0,59,0.00,,,0.00,Wunderground v.1.15,2013-03-06 01:52:00,
2013-03-05 17:58:00,56.2,42.5,29.83,SSE,148,0.0,1.0,60,0.00,,,0.00,Wunderground v.1.15,2013-03-06 01:58:00,
2013-03-05 18:04:00,55.9,42.6,29.83,SSE,165,0.0,0.0,61,0.00,,,0.00,Wunderground v.1.15,2013-03-06 02:04:00,
2013-03-05 18:10:00,55.6,42.8,29.83,SSE,148,0.0,1.0,62,0.00,,,0.00,Wunderground v.1.15,2013-03-06 02:10:00,
2013-03-05 18:16:00,55.3,42.9,29.83,SSW,200,0.0,1.0,63,0.00,,,0.00,Wunderground v.1.15,2013-03-06 02:16:00,
2013-03-05 18:22:00,55.0,42.6,29.83,SSW,200,0.0,0.0,63,0.00,,,0.00,Wunderground v.1.15,2013-03-06 02:22:00,
2013-03-05 18:28:00,54.8,42.9,29.83,SSW,200,0.0,0.0,64,0.00,,,0.00,Wunderground v.1.15,2013-03-06 02:28:00,
2013-03-05 18:34:00,54.6,43.1,29.83,SSE,157,0.0,5.0,65,0.00,,,0.00,Wunderground v.1.15,2013-03-06 02:34:00,
2013-03-05 18:40:00,54.4,42.9,29.83,SSE,167,0.0,0.0,65,0.00,,,0.00,Wunderground v.1.15,2013-03-06 02:40:00,
2013-03-05 18:46:00,54.3,42.8,29.83,SSE,157,0.0,0.0,65,0.00,,,0.00,Wunderground v.1.15,2013-03-06 02:46:00,
2013-03-05 18:52:00,54.2,42.7,29.82,SSE,158,0.0,0.0,65,0.00,,,0.00,Wunderground v.1.15,2013-03-06 02:52:00,
2013-03-05 18:58:00,54.1,42.6,29.82,SSE,161,0.0,1.0,65,0.00,,,0.00,Wunderground v.1.15,2013-03-06 02:58:00,
2013-03-05 19:04:00,54.1,42.6,29.82,SSW,194,0.0,1.0,65,0.00,,,0.00,Wunderground v.1.15,2013-03-06 03:04:00,
2013-03-05 19:10:00,54.1,42.6,29.82,SSE,168,0.0,0.0,65,0.00,,,0.00,Wunderground v.1.15,2013-03-06 03:10:00,
2013-03-05 19:16:00,54.0,42.9,29.82,SSE,163,0.0,0.0,66,0.00,,,0.00,Wunderground v.1.15,2013-03-06 03:16:00,
2013-03-05 19:22:00,53.8,42.7,29.82,SSE,155,0.0,0.0,66,0.00,,,0.00,Wunderground v.1.15,2013-03-06 03:22:00,
2013-03-05 19:28:00,53.6,42.9,29.82,SSE,165,0.0,0.0,67,0.00,,,0.00,Wunderground v.1.15,2013-03-06 03:28:00,
2013-03-05 19:34:00,53.5,43.2,29.82,South,169,0.0,2.0,68,0.00,,,0.00,Wunderground v.1.15,2013-03-06 03:34:00,
2013-03-05 19:40:00,53.3,43.0,29.81,South,171,0.0,0.0,68,0.00,,,0.00,Wunderground v.1.15,2013-03-06 03:40:00,
2013-03-05 19:46:00,53.3,43.0,29.81,South,170,0.0,0.0,68,0.00,,,0.00,Wunderground v.1.15,2013-03-06 03:46:00,
2013-03-05 19:52:00,53.2,43.3,29.81,South,170,0.0,0.0,69,0.00,,,0.00,Wunderground v.1.15,2013-03-06 03:52:00,
2013-03-05 19:58:00,53.1,43.2,29.81,South,171,0.0,0.0,69,0.00,,,0.00,Wunderground v.1.15,2013-03-06 03:58:00,
2013-03-05 20:04:00,53.0,43.1,29.81,South,171,0.0,0.0,69,0.00,,,0.00,Wunderground v.1.15,2013-03-06 04:04:00,
2013-03-05 20:10:00,53.0,43.1,29.81,South,171,0.0,0.0,69,0.00,,,0.00,Wunderground v.1.15,2013-03-06 04:10:00,
2013-03-05 20:16:00,52.9,43.4,29.82,South,171,0.0,0.0,70,0.00,,,0.00,Wunderground v.1.15,2013-03-06 04:16:00,
2013-03-05 20:22:00,52.8,43.7,29.82,South,171,0.0,0.0,71,0.00,,,0.00,Wunderground v.1.15,2013-03-06 04:22:00,
2013-03-05 20:28:00,52.6,43.5,29.83,South,171,0.0,0.0,71,0.00,,,0.00,Wunderground v.1.15,2013-03-06 04:28:00,
2013-03-05 20:34:00,52.5,43.7,29.82,South,171,0.0,2.0,72,0.00,,,0.00,Wunderground v.1.15,2013-03-06 04:34:00,
2013-03-05 20:40:00,52.4,43.6,29.83,South,171,0.0,0.0,72,0.00,,,0.00,Wunderground v.1.15,2013-03-06 04:40:00,
2013-03-05 20:46:00,52.2,43.4,29.82,South,171,0.0,0.0,72,0.00,,,0.00,Wunderground v.1.15,2013-03-06 04:46:00,
2013-03-05 20:52:00,52.2,43.8,29.82,South,171,0.0,0.0,73,0.00,,,0.00,Wunderground v.1.15,2013-03-06 04:52:00,
2013-03-05 20:58:00,52.1,43.7,29.82,South,171,0.0,0.0,73,0.00,,,0.00,Wunderground v.1.15,2013-03-06 04:58:00,
2013-03-05 21:00:00,52.1,43.7,29.82,ESE,117,0.0,0.0,73,0.00,,,0.00,Wunderground v.1.15,2013-03-06 05:00:00,
2013-03-05 21:02:00,52.0,43.6,29.82,SE,144,0.0,0.0,73,0.00,,,0.00,Wunderground v.1.15,2013-03-06 05:02:00,
2013-03-05 21:04:00,52.1,43.7,29.82,SSE,151,0.0,1.0,73,0.00,,,0.00,Wunderground v.1.15,2013-03-06 05:04:00,
2013-03-05 21:10:00,52.1,43.7,29.82,SSE,154,0.0,0.0,73,0.00,,,0.00,Wunderground v.1.15,2013-03-06 05:10:00,
2013-03-05 21:16:00,52.1,43.7,29.82,South,182,0.0,1.0,73,0.00,,,0.00,Wunderground v.1.15,2013-03-06 05:16:00,
2013-03-05 21:22:00,52.2,43.8,29.82,SSE,153,0.0,0.0,73,0.00,,,0.00,Wunderground v.1.15,2013-03-06 05:22:00,
2013-03-05 21:28:00,52.3,43.9,29.83,South,175,0.0,0.0,73,0.00,,,0.00,Wunderground v.1.15,2013-03-06 05:28:00,
2013-03-05 21:34:00,52.4,44.0,29.82,SSW,198,0.0,0.0,73,0.00,,,0.00,Wunderground v.1.15,2013-03-06 05:34:00,
2013-03-05 21:40:00,52.4,44.0,29.83,SSW,198,0.0,0.0,73,0.00,,,0.00,Wunderground v.1.15,2013-03-06 05:40:00,
2013-03-05 21:46:00,52.4,44.0,29.83,SSW,198,0.0,0.0,73,0.00,,,0.00,Wunderground v.1.15,2013-03-06 05:46:00,
2013-03-05 21:52:00,52.3,43.9,29.83,SSW,198,0.0,0.0,73,0.00,,,0.00,Wunderground v.1.15,2013-03-06 05:52:00,
2013-03-05 21:58:00,52.3,43.9,29.83,SSW,198,0.0,0.0,73,0.00,,,0.00,Wunderground v.1.15,2013-03-06 05:58:00,
2013-03-05 22:04:00,52.2,44.2,29.82,SSW,198,0.0,0.0,74,0.00,,,0.00,Wunderground v.1.15,2013-03-06 06:04:00,
2013-03-05 22:10:00,52.2,43.8,29.82,South,170,0.0,0.0,73,0.00,,,0.00,Wunderground v.1.15,2013-03-06 06:10:00,
2013-03-05 22:16:00,52.3,43.9,29.82,SE,144,0.0,2.0,73,0.00,,,0.00,Wunderground v.1.15,2013-03-06 06:16:00,
2013-03-05 22:22:00,52.5,43.4,29.81,SSE,157,0.0,1.0,71,0.00,,,0.00,Wunderground v.1.15,2013-03-06 06:22:00,
2013-03-05 22:28:00,52.7,43.6,29.81,South,171,1.0,3.0,71,0.00,,,0.00,Wunderground v.1.15,2013-03-06 06:28:00,
2013-03-05 22:34:00,52.9,43.7,29.81,SSW,198,1.0,2.0,71,0.00,,,0.00,Wunderground v.1.15,2013-03-06 06:34:00,
2013-03-05 22:40:00,52.9,43.4,29.80,SSE,148,0.0,0.0,70,0.00,,,0.00,Wunderground v.1.15,2013-03-06 06:40:00,
2013-03-05 22:46:00,53.0,43.1,29.81,South,175,0.0,1.0,69,0.00,,,0.00,Wunderground v.1.15,2013-03-06 06:46:00,
2013-03-05 22:52:00,53.0,43.1,29.81,SSW,210,0.0,1.0,69,0.00,,,0.00,Wunderground v.1.15,2013-03-06 06:52:00,
2013-03-05 22:58:00,53.0,43.5,29.82,South,185,1.0,1.0,70,0.00,,,0.00,Wunderground v.1.15,2013-03-06 06:58:00,
2013-03-05 23:04:00,52.9,43.7,29.82,South,169,0.0,1.0,71,0.00,,,0.00,Wunderground v.1.15,2013-03-06 07:04:00,
2013-03-05 23:10:00,52.8,44.4,29.82,SSW,194,0.0,1.0,73,0.00,,,0.00,Wunderground v.1.15,2013-03-06 07:10:00,
2013-03-05 23:16:00,52.5,44.1,29.83,South,184,1.0,1.0,73,0.00,,,0.00,Wunderground v.1.15,2013-03-06 07:16:00,
2013-03-05 23:22:00,52.2,43.4,29.84,ESE,122,0.0,1.0,72,0.00,,,0.00,Wunderground v.1.15,2013-03-06 07:22:00,
2013-03-05 23:28:00,52.0,42.9,29.84,SSW,207,1.0,2.0,71,0.00,,,0.00,Wunderground v.1.15,2013-03-06 07:28:00,
2013-03-05 23:34:00,52.0,42.9,29.84,South,183,1.0,6.0,71,0.00,,,0.00,Wunderground v.1.15,2013-03-06 07:34:00,
2013-03-05 23:40:00,51.8,43.8,29.84,SSE,148,2.0,2.0,74,0.00,,,0.00,Wunderground v.1.15,2013-03-06 07:40:00,
2013-03-05 23:46:00,51.2,44.6,29.83,South,188,2.0,2.0,78,0.23,,,0.02,Wunderground v.1.15,2013-03-06 07:46:00,
2013-03-05 23:52:00,50.5,44.9,29.84,ESE,123,2.0,3.0,81,0.38,,,0.05,Wunderground v.1.15,2013-03-06 07:52:00,
2013-03-05 23:58:00,49.7,44.1,29.83,South,173,2.0,3.0,81,0.32,,,0.08,Wunderground v.1.15,2013-03-06 07:58:00,